Year,Month,Day,Hour,Minute,Value (Times are PST for temperature in C)
2010,07,08,00,00,18.00
2010,07,08,00,01,18.00
2010,07,08,00,02,17.90
2010,07,08,00,03,17.90
2010,07,08,00,04,17.90
2010,07,08,00,05,17.80
2010,07,08,00,06,17.80
2010,07,08,00,07,17.80
2010,07,08,00,08,17.80
2010,07,08,00,09,17.70
2010,07,08,00,10,17.70
2010,07,08,00,11,17.70
2010,07,08,00,12,17.60
2010,07,08,00,18,17.50
2010,07,08,00,19,17.50
2010,07,08,00,20,17.40
2010,07,08,00,21,17.40
2010,07,08,00,22,17.40
2010,07,08,00,23,17.40
2010,07,08,00,24,17.40
2010,07,08,00,25,17.40
2010,07,08,00,26,17.30
2010,07,08,00,27,17.30
2010,07,08,00,28,17.30
2010,07,08,00,29,17.30
2010,07,08,00,30,17.30
2010,07,08,00,31,17.30
2010,07,08,00,32,17.20
2010,07,08,00,33,17.20
2010,07,08,00,34,17.20
2010,07,08,00,35,17.20
2010,07,08,00,36,17.10
2010,07,08,00,37,17.10
2010,07,08,00,38,17.10
2010,07,08,00,39,17.00
2010,07,08,00,40,17.00
2010,07,08,00,41,17.00
2010,07,08,00,42,17.00
2010,07,08,00,43,16.90
2010,07,08,00,44,16.90
2010,07,08,00,45,16.90
2010,07,08,00,46,16.90
2010,07,08,00,47,16.80
2010,07,08,00,48,16.80
2010,07,08,00,49,16.80
2010,07,08,00,50,16.80
2010,07,08,00,51,16.80
2010,07,08,00,52,16.70
2010,07,08,00,53,16.70
2010,07,08,00,54,16.70
2010,07,08,00,55,16.70
2010,07,08,00,56,16.70
2010,07,08,00,57,16.60
2010,07,08,00,58,16.60
2010,07,08,00,59,16.60
2010,07,08,01,00,16.60
2010,07,08,01,01,16.60
2010,07,08,01,02,16.50
2010,07,08,01,03,16.50
2010,07,08,01,04,16.50
2010,07,08,01,05,16.50
2010,07,08,01,06,16.40
2010,07,08,01,07,16.40
2010,07,08,01,08,16.40
2010,07,08,01,09,16.40
2010,07,08,01,10,16.30
2010,07,08,01,11,16.30
2010,07,08,01,12,16.30
2010,07,08,01,13,16.30
2010,07,08,01,14,16.30
2010,07,08,01,15,16.20
2010,07,08,01,16,16.20
2010,07,08,01,17,16.20
2010,07,08,01,18,16.20
2010,07,08,01,19,16.20
2010,07,08,01,20,16.20
2010,07,08,01,21,16.10
2010,07,08,01,22,16.10
2010,07,08,01,23,16.10
2010,07,08,01,24,16.10
2010,07,08,01,25,16.00
2010,07,08,01,26,16.00
2010,07,08,01,27,16.00
2010,07,08,01,28,15.90
2010,07,08,01,29,15.90
2010,07,08,01,30,15.90
2010,07,08,01,31,15.90
2010,07,08,01,32,15.80
2010,07,08,01,33,15.80
2010,07,08,01,34,15.80
2010,07,08,01,35,15.80
2010,07,08,01,36,15.80
2010,07,08,01,37,15.80
2010,07,08,01,38,15.80
2010,07,08,01,39,15.80
2010,07,08,01,40,15.80
2010,07,08,01,41,15.80
2010,07,08,01,42,15.80
2010,07,08,01,43,15.80
2010,07,08,01,44,15.80
2010,07,08,01,45,15.80
2010,07,08,01,46,15.80
2010,07,08,01,47,15.80
2010,07,08,01,48,15.80
2010,07,08,01,49,15.80
2010,07,08,01,50,15.80
2010,07,08,01,51,15.80
2010,07,08,01,52,15.70
2010,07,08,01,53,15.70
2010,07,08,01,54,15.70
2010,07,08,01,55,15.70
2010,07,08,01,56,15.70
2010,07,08,01,57,15.60
2010,07,08,01,58,15.60
2010,07,08,01,59,15.60
2010,07,08,02,00,15.60
2010,07,08,02,01,15.50
2010,07,08,02,02,15.50
2010,07,08,02,03,15.50
2010,07,08,02,04,15.40
2010,07,08,02,05,15.40
2010,07,08,02,06,15.40
2010,07,08,02,07,15.40
2010,07,08,02,08,15.40
2010,07,08,02,09,15.40
2010,07,08,02,10,15.40
2010,07,08,02,11,15.40
2010,07,08,02,12,15.40
2010,07,08,02,13,15.40
2010,07,08,02,14,15.40
2010,07,08,02,15,15.40
2010,07,08,02,16,15.40
2010,07,08,02,17,15.30
2010,07,08,02,18,15.30
2010,07,08,02,19,15.30
2010,07,08,02,20,15.30
2010,07,08,02,21,15.30
2010,07,08,02,22,15.30
2010,07,08,02,23,15.30
2010,07,08,02,24,15.30
2010,07,08,02,25,15.30
2010,07,08,02,26,15.30
2010,07,08,02,27,15.20
2010,07,08,02,28,15.20
2010,07,08,02,29,15.20
2010,07,08,02,30,15.20
2010,07,08,02,31,15.20
2010,07,08,02,32,15.10
2010,07,08,02,33,15.10
2010,07,08,02,34,15.00
2010,07,08,02,35,15.00
2010,07,08,02,36,15.00
2010,07,08,02,37,15.00
2010,07,08,02,38,15.00
2010,07,08,02,39,15.00
2010,07,08,02,40,15.00
2010,07,08,02,41,15.00
2010,07,08,02,42,15.00
2010,07,08,02,43,15.00
2010,07,08,02,44,15.00
2010,07,08,02,45,15.00
2010,07,08,02,46,15.00
2010,07,08,02,47,15.00
2010,07,08,02,48,15.00
2010,07,08,02,49,15.00
2010,07,08,02,50,15.00
2010,07,08,02,51,15.00
2010,07,08,02,52,15.00
2010,07,08,02,53,15.00
2010,07,08,02,54,15.00
2010,07,08,02,55,15.00
2010,07,08,02,56,15.00
2010,07,08,02,57,14.90
2010,07,08,02,58,14.90
2010,07,08,02,59,14.90
2010,07,08,03,00,14.80
2010,07,08,03,01,14.80
2010,07,08,03,02,14.80
2010,07,08,03,03,14.80
2010,07,08,03,04,14.80
2010,07,08,03,05,14.70
2010,07,08,03,06,14.70
2010,07,08,03,07,14.70
2010,07,08,03,08,14.70
2010,07,08,03,09,14.70
2010,07,08,03,10,14.70
2010,07,08,03,11,14.70
2010,07,08,03,12,14.70
2010,07,08,03,13,14.70
2010,07,08,03,14,14.70
2010,07,08,03,15,14.70
2010,07,08,03,16,14.70
2010,07,08,03,17,14.70
2010,07,08,03,18,14.70
2010,07,08,03,19,14.70
2010,07,08,03,20,14.70
2010,07,08,03,21,14.70
2010,07,08,03,22,14.70
2010,07,08,03,23,14.70
2010,07,08,03,24,14.70
2010,07,08,03,25,14.70
2010,07,08,03,26,14.70
2010,07,08,03,27,14.70
2010,07,08,03,28,14.70
2010,07,08,03,29,14.70
2010,07,08,03,30,14.70
2010,07,08,03,31,14.60
2010,07,08,03,32,14.60
2010,07,08,03,33,14.60
2010,07,08,03,34,14.60
2010,07,08,03,35,14.60
2010,07,08,03,36,14.50
2010,07,08,03,37,14.50
2010,07,08,03,38,14.50
2010,07,08,03,39,14.50
2010,07,08,03,40,14.40
2010,07,08,03,41,14.40
2010,07,08,03,42,14.40
2010,07,08,03,43,14.40
2010,07,08,03,44,14.40
2010,07,08,03,45,14.40
2010,07,08,03,46,14.40
2010,07,08,03,47,14.40
2010,07,08,03,48,14.40
2010,07,08,03,49,14.40
2010,07,08,03,50,14.40
2010,07,08,03,51,14.30
2010,07,08,03,52,14.30
2010,07,08,03,53,14.30
2010,07,08,03,54,14.30
2010,07,08,03,55,14.30
2010,07,08,03,56,14.30
2010,07,08,03,57,14.30
2010,07,08,03,58,14.30
2010,07,08,03,59,14.30
2010,07,08,04,00,14.20
2010,07,08,04,01,14.20
2010,07,08,04,02,14.20
2010,07,08,04,03,14.20
2010,07,08,04,04,14.20
2010,07,08,04,05,14.20
2010,07,08,04,06,14.20
2010,07,08,04,07,14.20
2010,07,08,04,08,14.20
2010,07,08,04,09,14.20
2010,07,08,04,10,14.20
2010,07,08,04,11,14.20
2010,07,08,04,12,14.20
2010,07,08,04,13,14.20
2010,07,08,04,14,14.20
2010,07,08,04,15,14.20
2010,07,08,04,16,14.20
2010,07,08,04,17,14.20
2010,07,08,04,18,14.20
2010,07,08,04,19,14.20
2010,07,08,04,20,14.20
2010,07,08,04,21,14.10
2010,07,08,04,22,14.10
2010,07,08,04,23,14.10
2010,07,08,04,24,14.10
2010,07,08,04,25,14.10
2010,07,08,04,26,14.10
2010,07,08,04,27,14.10
2010,07,08,04,28,14.10
2010,07,08,04,29,14.10
2010,07,08,04,30,14.10
2010,07,08,04,31,14.10
2010,07,08,04,32,14.00
2010,07,08,04,33,14.00
2010,07,08,04,34,14.00
2010,07,08,04,35,14.00
2010,07,08,04,36,14.00
2010,07,08,04,37,13.90
2010,07,08,04,38,13.90
2010,07,08,04,39,13.90
2010,07,08,04,40,13.90
2010,07,08,04,41,13.90
2010,07,08,04,42,13.80
2010,07,08,04,43,13.80
2010,07,08,04,44,13.80
2010,07,08,04,45,13.80
2010,07,08,04,46,13.80
2010,07,08,04,47,13.80
2010,07,08,04,48,13.80
2010,07,08,04,49,13.80
2010,07,08,04,50,13.80
2010,07,08,04,51,13.80
2010,07,08,04,52,13.80
2010,07,08,04,53,13.80
2010,07,08,04,54,13.80
2010,07,08,04,55,13.80
2010,07,08,04,56,13.80
2010,07,08,04,57,13.80
2010,07,08,04,58,13.80
2010,07,08,04,59,13.80
2010,07,08,05,00,13.80
2010,07,08,05,01,13.80
2010,07,08,05,02,13.80
2010,07,08,05,03,13.70
2010,07,08,05,04,13.70
2010,07,08,05,05,13.70
2010,07,08,05,06,13.70
2010,07,08,05,07,13.70
2010,07,08,05,08,13.70
2010,07,08,05,09,13.70
2010,07,08,05,10,13.70
2010,07,08,05,11,13.70
2010,07,08,05,12,13.60
2010,07,08,05,13,13.60
2010,07,08,05,14,13.60
2010,07,08,05,15,13.60
2010,07,08,05,16,13.60
2010,07,08,05,17,13.60
2010,07,08,05,18,13.60
2010,07,08,05,19,13.60
2010,07,08,05,20,13.60
2010,07,08,05,21,13.60
2010,07,08,05,22,13.70
2010,07,08,05,23,13.70
2010,07,08,05,24,13.70
2010,07,08,05,25,13.70
2010,07,08,05,26,13.70
2010,07,08,05,27,13.70
2010,07,08,05,28,13.70
2010,07,08,05,29,13.70
2010,07,08,05,30,13.70
2010,07,08,05,31,13.70
2010,07,08,05,32,13.70
2010,07,08,05,33,13.70
2010,07,08,05,34,13.70
2010,07,08,05,35,13.70
2010,07,08,05,36,13.70
2010,07,08,05,37,13.70
2010,07,08,05,38,13.70
2010,07,08,05,39,13.70
2010,07,08,05,40,13.70
2010,07,08,05,41,13.70
2010,07,08,05,42,13.70
2010,07,08,05,43,13.70
2010,07,08,05,44,13.70
2010,07,08,05,45,13.70
2010,07,08,05,46,13.70
2010,07,08,05,47,13.70
2010,07,08,05,48,13.70
2010,07,08,05,49,13.70
2010,07,08,05,50,13.70
2010,07,08,05,51,13.70
2010,07,08,05,52,13.70
2010,07,08,05,53,13.70
2010,07,08,05,54,13.70
2010,07,08,05,55,13.70
2010,07,08,05,56,13.70
2010,07,08,05,57,13.70
2010,07,08,05,58,13.70
2010,07,08,05,59,13.70
2010,07,08,06,00,13.70
2010,07,08,06,01,13.70
2010,07,08,06,02,13.70
2010,07,08,06,03,13.70
2010,07,08,06,04,13.70
2010,07,08,06,05,13.70
2010,07,08,06,06,13.70
2010,07,08,06,07,13.70
2010,07,08,06,08,13.70
2010,07,08,06,09,13.70
2010,07,08,06,10,13.70
2010,07,08,06,11,13.70
2010,07,08,06,12,13.70
2010,07,08,06,13,13.70
2010,07,08,06,14,13.70
2010,07,08,06,15,13.80
2010,07,08,06,16,13.80
2010,07,08,06,17,13.80
2010,07,08,06,18,13.80
2010,07,08,06,19,13.80
2010,07,08,06,20,13.80
2010,07,08,06,21,13.80
2010,07,08,06,22,13.80
2010,07,08,06,23,13.80
2010,07,08,06,24,13.80
2010,07,08,06,25,13.80
2010,07,08,06,26,13.80
2010,07,08,06,27,13.80
2010,07,08,06,28,13.80
2010,07,08,06,29,13.80
2010,07,08,06,30,13.90
2010,07,08,06,31,13.90
2010,07,08,06,32,13.90
2010,07,08,06,33,14.00
2010,07,08,06,34,14.00
2010,07,08,06,35,14.10
2010,07,08,06,36,14.10
2010,07,08,06,37,14.10
2010,07,08,06,38,14.20
2010,07,08,06,39,14.20
2010,07,08,06,40,14.20
2010,07,08,06,41,14.20
2010,07,08,06,42,14.30
2010,07,08,06,43,14.30
2010,07,08,06,44,14.40
2010,07,08,06,45,14.40
2010,07,08,06,46,14.50
2010,07,08,06,47,14.60
2010,07,08,06,48,14.60
2010,07,08,06,49,14.70
2010,07,08,06,50,14.70
2010,07,08,06,51,14.80
2010,07,08,06,52,14.90
2010,07,08,06,53,15.00
2010,07,08,06,54,15.00
2010,07,08,06,55,15.00
2010,07,08,06,56,15.10
2010,07,08,06,57,15.20
2010,07,08,06,58,15.20
2010,07,08,06,59,15.30
2010,07,08,07,00,15.30
2010,07,08,07,01,15.40
2010,07,08,07,02,15.50
2010,07,08,07,03,15.60
2010,07,08,07,04,15.70
2010,07,08,07,05,15.70
2010,07,08,07,06,15.80
2010,07,08,07,07,15.90
2010,07,08,07,08,16.00
2010,07,08,07,09,16.10
2010,07,08,07,10,16.20
2010,07,08,07,11,16.30
2010,07,08,07,12,16.40
2010,07,08,07,13,16.50
2010,07,08,07,14,16.60
2010,07,08,07,15,16.80
2010,07,08,07,16,16.90
2010,07,08,07,17,17.00
2010,07,08,07,18,17.10
2010,07,08,07,19,17.20
2010,07,08,07,20,17.30
2010,07,08,07,21,17.40
2010,07,08,07,22,17.60
2010,07,08,07,23,17.70
2010,07,08,07,24,17.80
2010,07,08,07,25,17.90
2010,07,08,07,26,18.10
2010,07,08,07,27,18.20
2010,07,08,07,28,18.30
2010,07,08,07,29,18.50
2010,07,08,07,30,18.60
2010,07,08,07,31,18.80
2010,07,08,07,32,18.90
2010,07,08,07,33,19.00
2010,07,08,07,34,19.20
2010,07,08,07,35,19.30
2010,07,08,07,36,19.40
2010,07,08,07,37,19.60
2010,07,08,07,38,19.70
2010,07,08,07,39,19.90
2010,07,08,07,40,20.10
2010,07,08,07,41,20.20
2010,07,08,07,42,20.30
2010,07,08,07,43,20.50
2010,07,08,07,44,20.70
2010,07,08,07,45,20.90
2010,07,08,07,46,21.10
2010,07,08,07,47,21.40
2010,07,08,07,48,21.60
2010,07,08,07,49,21.90
2010,07,08,07,50,22.10
2010,07,08,07,51,22.30
2010,07,08,07,52,22.40
2010,07,08,07,53,22.60
2010,07,08,07,54,22.80
2010,07,08,07,55,23.00
2010,07,08,07,56,23.20
2010,07,08,07,57,23.30
2010,07,08,07,58,23.50
2010,07,08,07,59,23.80
2010,07,08,08,00,23.90
2010,07,08,08,01,24.00
2010,07,08,08,02,24.10
2010,07,08,08,03,24.20
2010,07,08,08,04,24.30
2010,07,08,08,05,24.30
2010,07,08,08,06,24.50
2010,07,08,08,07,24.50
2010,07,08,08,08,24.50
2010,07,08,08,09,24.50
2010,07,08,08,10,24.60
2010,07,08,08,11,24.60
2010,07,08,08,12,24.70
2010,07,08,08,13,24.80
2010,07,08,08,14,24.90
2010,07,08,08,15,24.90
2010,07,08,08,16,25.00
2010,07,08,08,17,25.10
2010,07,08,08,18,25.10
2010,07,08,08,19,25.10
2010,07,08,08,20,25.20
2010,07,08,08,21,25.20
2010,07,08,08,22,25.20
2010,07,08,08,23,25.30
2010,07,08,08,24,25.30
2010,07,08,08,25,25.30
2010,07,08,08,26,25.30
2010,07,08,08,27,25.40
2010,07,08,08,28,25.40
2010,07,08,08,29,25.50
2010,07,08,08,30,25.50
2010,07,08,08,31,25.60
2010,07,08,08,32,25.60
2010,07,08,08,33,25.70
2010,07,08,08,34,25.80
2010,07,08,08,35,25.90
2010,07,08,08,36,25.90
2010,07,08,08,37,25.90
2010,07,08,08,38,25.90
2010,07,08,08,39,26.00
2010,07,08,08,40,26.10
2010,07,08,08,41,26.20
2010,07,08,08,42,26.30
2010,07,08,08,43,26.30
2010,07,08,08,44,26.30
2010,07,08,08,45,26.30
2010,07,08,08,46,26.40
2010,07,08,08,47,26.30
2010,07,08,08,48,26.30
2010,07,08,08,49,26.40
2010,07,08,08,50,26.30
2010,07,08,08,51,26.30
2010,07,08,08,52,26.40
2010,07,08,08,53,26.40
2010,07,08,08,54,26.50
2010,07,08,08,55,26.60
2010,07,08,08,56,26.60
2010,07,08,08,57,26.70
2010,07,08,08,58,26.70
2010,07,08,08,59,26.80
2010,07,08,09,00,26.90
2010,07,08,09,01,26.90
2010,07,08,09,02,27.00
2010,07,08,09,03,27.00
2010,07,08,09,04,27.10
2010,07,08,09,05,27.10
2010,07,08,09,06,27.10
2010,07,08,09,07,27.20
2010,07,08,09,08,27.20
2010,07,08,09,09,27.20
2010,07,08,09,10,27.20
2010,07,08,09,11,27.30
2010,07,08,09,12,27.40
2010,07,08,09,13,27.40
2010,07,08,09,14,27.50
2010,07,08,09,15,27.50
2010,07,08,09,16,27.60
2010,07,08,09,17,27.70
2010,07,08,09,18,27.80
2010,07,08,09,19,27.80
2010,07,08,09,20,28.00
2010,07,08,09,21,28.00
2010,07,08,09,22,28.10
2010,07,08,09,23,28.20
2010,07,08,09,24,28.20
2010,07,08,09,25,28.20
2010,07,08,09,26,28.20
2010,07,08,09,27,28.20
2010,07,08,09,28,28.20
2010,07,08,09,29,28.20
2010,07,08,09,30,28.20
2010,07,08,09,31,28.30
2010,07,08,09,32,28.30
2010,07,08,09,33,28.30
2010,07,08,09,34,28.30
2010,07,08,09,35,28.30
2010,07,08,09,36,28.30
2010,07,08,09,37,28.40
2010,07,08,09,38,28.40
2010,07,08,09,39,28.50
2010,07,08,09,40,28.60
2010,07,08,09,41,28.60
2010,07,08,09,42,28.60
2010,07,08,09,43,28.60
2010,07,08,09,44,28.60
2010,07,08,09,45,28.60
2010,07,08,09,46,28.60
2010,07,08,09,47,28.50
2010,07,08,09,48,28.50
2010,07,08,09,49,28.40
2010,07,08,09,50,28.30
2010,07,08,09,51,28.40
2010,07,08,09,52,28.40
2010,07,08,09,53,28.40
2010,07,08,09,54,28.40
2010,07,08,09,55,28.40
2010,07,08,09,56,28.40
2010,07,08,09,57,28.40
2010,07,08,09,58,28.40
2010,07,08,09,59,28.40
2010,07,08,10,00,28.40
2010,07,08,10,01,28.40
2010,07,08,10,02,28.40
2010,07,08,10,03,28.30
2010,07,08,10,04,28.30
2010,07,08,10,05,28.30
2010,07,08,10,06,28.30
2010,07,08,10,07,28.30
2010,07,08,10,08,28.20
2010,07,08,10,09,28.20
2010,07,08,10,10,28.20
2010,07,08,10,11,28.20
2010,07,08,10,12,28.30
2010,07,08,10,13,28.30
2010,07,08,10,14,28.30
2010,07,08,10,15,28.30
2010,07,08,10,16,28.30
2010,07,08,10,17,28.30
2010,07,08,10,18,28.40
2010,07,08,10,19,28.40
2010,07,08,10,20,28.50
2010,07,08,10,21,28.60
2010,07,08,10,22,28.70
2010,07,08,10,23,28.80
2010,07,08,10,24,28.80
2010,07,08,10,25,28.90
2010,07,08,10,26,28.90
2010,07,08,10,27,28.90
2010,07,08,10,28,28.90
2010,07,08,10,29,28.80
2010,07,08,10,30,28.80
2010,07,08,10,31,28.70
2010,07,08,10,32,28.70
2010,07,08,10,33,28.70
2010,07,08,10,34,28.80
2010,07,08,10,35,28.70
2010,07,08,10,36,28.70
2010,07,08,10,37,28.70
2010,07,08,10,38,28.60
2010,07,08,10,39,28.60
2010,07,08,10,40,28.60
2010,07,08,10,41,28.50
2010,07,08,10,42,28.50
2010,07,08,10,43,28.40
2010,07,08,10,44,28.40
2010,07,08,10,45,28.50
2010,07,08,10,46,28.50
2010,07,08,10,47,28.60
2010,07,08,10,48,28.70
2010,07,08,10,49,28.70
2010,07,08,10,50,28.80
2010,07,08,10,51,28.80
2010,07,08,10,52,28.80
2010,07,08,10,53,28.80
2010,07,08,10,54,28.70
2010,07,08,10,55,28.80
2010,07,08,10,56,28.80
2010,07,08,10,57,28.70
2010,07,08,10,58,28.70
2010,07,08,10,59,28.80
2010,07,08,11,00,28.80
2010,07,08,11,01,28.90
2010,07,08,11,02,28.90
2010,07,08,11,03,28.90
2010,07,08,11,04,28.90
2010,07,08,11,05,28.90
2010,07,08,11,06,29.00
2010,07,08,11,07,29.00
2010,07,08,11,08,29.00
2010,07,08,11,09,28.90
2010,07,08,11,10,29.00
2010,07,08,11,11,29.10
2010,07,08,11,12,29.20
2010,07,08,11,13,29.30
2010,07,08,11,14,29.50
2010,07,08,11,15,29.60
2010,07,08,11,16,29.60
2010,07,08,11,17,29.60
2010,07,08,11,18,29.60
2010,07,08,11,19,29.70
2010,07,08,11,20,29.70
2010,07,08,11,21,29.80
2010,07,08,11,22,29.80
2010,07,08,11,23,29.80
2010,07,08,11,24,29.80
2010,07,08,11,25,29.90
2010,07,08,11,26,29.90
2010,07,08,11,27,29.90
2010,07,08,11,28,29.80
2010,07,08,11,29,29.70
2010,07,08,11,30,29.60
2010,07,08,11,31,29.40
2010,07,08,11,32,29.30
2010,07,08,11,33,29.30
2010,07,08,11,34,29.20
2010,07,08,11,35,29.10
2010,07,08,11,36,29.10
2010,07,08,11,37,29.10
2010,07,08,11,38,29.20
2010,07,08,11,39,29.40
2010,07,08,11,40,29.60
2010,07,08,11,41,29.70
2010,07,08,11,42,29.80
2010,07,08,11,43,29.80
2010,07,08,11,44,29.80
2010,07,08,11,45,29.80
2010,07,08,11,46,29.80
2010,07,08,11,47,29.80
2010,07,08,11,48,29.90
2010,07,08,11,49,30.10
2010,07,08,11,50,30.20
2010,07,08,11,51,30.20
2010,07,08,11,52,30.20
2010,07,08,11,53,30.20
2010,07,08,11,54,30.30
2010,07,08,11,55,30.30
2010,07,08,11,56,30.30
2010,07,08,11,57,30.20
2010,07,08,11,58,30.20
2010,07,08,11,59,30.10
2010,07,08,12,00,30.00
2010,07,08,12,01,29.90
2010,07,08,12,02,29.90
2010,07,08,12,03,29.80
2010,07,08,12,04,29.70
2010,07,08,12,05,29.70
2010,07,08,12,06,29.70
2010,07,08,12,07,29.70
2010,07,08,12,08,29.60
2010,07,08,12,09,29.60
2010,07,08,12,10,29.70
2010,07,08,12,11,29.80
2010,07,08,12,12,30.00
2010,07,08,12,13,30.20
2010,07,08,12,14,30.20
2010,07,08,12,15,30.20
2010,07,08,12,16,30.10
2010,07,08,12,17,30.10
2010,07,08,12,18,30.10
2010,07,08,12,19,30.20
2010,07,08,12,20,30.10
2010,07,08,12,21,30.10
2010,07,08,12,22,30.10
2010,07,08,12,23,30.00
2010,07,08,12,24,30.00
2010,07,08,12,25,29.90
2010,07,08,12,26,29.90
2010,07,08,12,27,29.90
2010,07,08,12,28,30.00
2010,07,08,12,29,30.10
2010,07,08,12,30,30.20
2010,07,08,12,31,30.30
2010,07,08,12,32,30.30
2010,07,08,12,33,30.40
2010,07,08,12,34,30.50
2010,07,08,12,35,30.60
2010,07,08,12,36,30.60
2010,07,08,12,37,30.70
2010,07,08,12,38,30.80
2010,07,08,12,39,30.80
2010,07,08,12,40,30.70
2010,07,08,12,41,30.70
2010,07,08,12,42,30.70
2010,07,08,12,43,30.80
2010,07,08,12,44,30.80
2010,07,08,12,45,30.60
2010,07,08,12,46,30.60
2010,07,08,12,47,30.50
2010,07,08,12,48,30.50
2010,07,08,12,49,30.60
2010,07,08,12,50,30.60
2010,07,08,12,51,30.80
2010,07,08,12,52,30.90
2010,07,08,12,53,31.00
2010,07,08,12,54,31.10
2010,07,08,12,55,31.30
2010,07,08,12,56,31.40
2010,07,08,12,57,31.60
2010,07,08,12,58,31.70
2010,07,08,12,59,31.70
2010,07,08,13,00,31.70
2010,07,08,13,01,31.60
2010,07,08,13,02,31.50
2010,07,08,13,03,31.30
2010,07,08,13,04,31.20
2010,07,08,13,05,31.20
2010,07,08,13,06,31.30
2010,07,08,13,07,31.30
2010,07,08,13,08,31.30
2010,07,08,13,09,31.30
2010,07,08,13,10,31.30
2010,07,08,13,11,31.40
2010,07,08,13,12,31.50
2010,07,08,13,13,31.70
2010,07,08,13,14,31.80
2010,07,08,13,15,31.80
2010,07,08,13,16,31.80
2010,07,08,13,17,31.90
2010,07,08,13,18,32.00
2010,07,08,13,19,32.10
2010,07,08,13,20,32.10
2010,07,08,13,21,32.10
2010,07,08,13,22,32.10
2010,07,08,13,23,32.10
2010,07,08,13,24,32.10
2010,07,08,13,25,32.10
2010,07,08,13,26,32.00
2010,07,08,13,27,31.90
2010,07,08,13,28,31.80
2010,07,08,13,29,31.70
2010,07,08,13,30,31.70
2010,07,08,13,31,31.70
2010,07,08,13,32,31.70
2010,07,08,13,33,31.70
2010,07,08,13,34,31.70
2010,07,08,13,35,31.70
2010,07,08,13,36,31.80
2010,07,08,13,37,31.90
2010,07,08,13,38,32.00
2010,07,08,13,39,31.90
2010,07,08,13,40,31.70
2010,07,08,13,41,31.50
2010,07,08,13,42,31.40
2010,07,08,13,43,31.40
2010,07,08,13,44,31.40
2010,07,08,13,45,31.40
2010,07,08,13,46,31.40
2010,07,08,13,47,31.40
2010,07,08,13,48,31.40
2010,07,08,13,49,31.50
2010,07,08,13,50,31.60
2010,07,08,13,51,31.80
2010,07,08,13,52,31.90
2010,07,08,13,53,31.90
2010,07,08,13,54,31.90
2010,07,08,13,55,31.90
2010,07,08,13,56,31.90
2010,07,08,13,57,32.00
2010,07,08,13,58,32.10
2010,07,08,13,59,32.20
2010,07,08,14,00,32.30
2010,07,08,14,01,32.50
2010,07,08,14,02,32.60
2010,07,08,14,03,32.50
2010,07,08,14,04,32.50
2010,07,08,14,05,32.30
2010,07,08,14,06,32.30
2010,07,08,14,07,32.20
2010,07,08,14,08,32.20
2010,07,08,14,09,32.00
2010,07,08,14,10,31.90
2010,07,08,14,11,31.90
2010,07,08,14,12,31.90
2010,07,08,14,13,31.90
2010,07,08,14,14,31.90
2010,07,08,14,15,31.90
2010,07,08,14,16,31.90
2010,07,08,14,17,31.90
2010,07,08,14,18,31.80
2010,07,08,14,19,31.70
2010,07,08,14,20,31.80
2010,07,08,14,21,31.90
2010,07,08,14,22,31.80
2010,07,08,14,23,31.70
2010,07,08,14,24,31.50
2010,07,08,14,25,31.40
2010,07,08,14,26,31.30
2010,07,08,14,27,31.30
2010,07,08,14,28,31.30
2010,07,08,14,29,31.30
2010,07,08,14,30,31.30
2010,07,08,14,31,31.30
2010,07,08,14,32,31.20
2010,07,08,14,33,31.20
2010,07,08,14,34,31.20
2010,07,08,14,35,31.20
2010,07,08,14,36,31.20
2010,07,08,14,37,31.20
2010,07,08,14,38,31.20
2010,07,08,14,39,31.20
2010,07,08,14,40,31.30
2010,07,08,14,41,31.30
2010,07,08,14,42,31.30
2010,07,08,14,43,31.30
2010,07,08,14,44,31.30
2010,07,08,14,45,31.30
2010,07,08,14,46,31.40
2010,07,08,14,47,31.40
2010,07,08,14,48,31.30
2010,07,08,14,49,31.40
2010,07,08,14,50,31.50
2010,07,08,14,51,31.80
2010,07,08,14,52,31.90
2010,07,08,14,53,32.00
2010,07,08,14,54,32.10
2010,07,08,14,55,32.10
2010,07,08,14,56,32.00
2010,07,08,14,57,32.00
2010,07,08,14,58,31.90
2010,07,08,14,59,31.80
2010,07,08,15,00,31.70
2010,07,08,15,01,31.70
2010,07,08,15,02,31.60
2010,07,08,15,03,31.70
2010,07,08,15,04,31.70
2010,07,08,15,05,31.70
2010,07,08,15,06,31.60
2010,07,08,15,07,31.50
2010,07,08,15,08,31.40
2010,07,08,15,09,31.50
2010,07,08,15,10,31.50
2010,07,08,15,11,31.50
2010,07,08,15,12,31.50
2010,07,08,15,13,31.50
2010,07,08,15,14,31.50
2010,07,08,15,15,31.50
2010,07,08,15,16,31.50
2010,07,08,15,17,31.40
2010,07,08,15,18,31.30
2010,07,08,15,19,31.30
2010,07,08,15,20,31.30
2010,07,08,15,21,31.20
2010,07,08,15,22,31.20
2010,07,08,15,23,31.10
2010,07,08,15,24,31.10
2010,07,08,15,25,31.10
2010,07,08,15,26,31.20
2010,07,08,15,27,31.30
2010,07,08,15,28,31.30
2010,07,08,15,29,31.30
2010,07,08,15,30,31.30
2010,07,08,15,31,31.30
2010,07,08,15,32,31.50
2010,07,08,15,33,31.50
2010,07,08,15,34,31.60
2010,07,08,15,35,31.80
2010,07,08,15,36,32.00
2010,07,08,15,37,32.10
2010,07,08,15,38,32.20
2010,07,08,15,39,32.30
2010,07,08,15,40,32.30
2010,07,08,15,41,32.20
2010,07,08,15,42,32.10
2010,07,08,15,43,32.00
2010,07,08,15,44,31.90
2010,07,08,15,45,32.00
2010,07,08,15,46,32.10
2010,07,08,15,47,32.10
2010,07,08,15,48,32.10
2010,07,08,15,49,32.10
2010,07,08,15,50,32.00
2010,07,08,15,51,32.00
2010,07,08,15,52,31.90
2010,07,08,15,53,31.90
2010,07,08,15,54,31.90
2010,07,08,15,55,31.80
2010,07,08,15,56,31.70
2010,07,08,15,57,31.80
2010,07,08,15,58,31.70
2010,07,08,15,59,31.80
2010,07,08,16,00,31.80
2010,07,08,16,01,31.90
2010,07,08,16,02,32.00
2010,07,08,16,03,32.10
2010,07,08,16,04,32.00
2010,07,08,16,05,31.90
2010,07,08,16,06,31.90
2010,07,08,16,07,31.80
2010,07,08,16,08,31.80
2010,07,08,16,09,31.90
2010,07,08,16,10,31.90
2010,07,08,16,11,31.80
2010,07,08,16,12,31.90
2010,07,08,16,13,31.90
2010,07,08,16,14,32.10
2010,07,08,16,15,32.20
2010,07,08,16,16,32.30
2010,07,08,16,17,32.50
2010,07,08,16,18,32.70
2010,07,08,16,19,32.70
2010,07,08,16,20,32.80
2010,07,08,16,21,32.90
2010,07,08,16,22,33.10
2010,07,08,16,23,33.20
2010,07,08,16,24,33.30
2010,07,08,16,25,33.30
2010,07,08,16,26,33.20
2010,07,08,16,27,33.20
2010,07,08,16,28,33.20
2010,07,08,16,29,33.30
2010,07,08,16,30,33.30
2010,07,08,16,31,33.30
2010,07,08,16,32,33.30
2010,07,08,16,33,33.30
2010,07,08,16,34,33.40
2010,07,08,16,35,33.40
2010,07,08,16,36,33.40
2010,07,08,16,37,33.50
2010,07,08,16,38,33.50
2010,07,08,16,39,33.50
2010,07,08,16,40,33.40
2010,07,08,16,41,33.30
2010,07,08,16,42,33.30
2010,07,08,16,43,33.40
2010,07,08,16,44,33.50
2010,07,08,16,45,33.70
2010,07,08,16,46,33.70
2010,07,08,16,47,33.70
2010,07,08,16,48,33.80
2010,07,08,16,49,33.70
2010,07,08,16,50,33.60
2010,07,08,16,51,33.50
2010,07,08,16,52,33.40
2010,07,08,16,53,33.20
2010,07,08,16,54,33.10
2010,07,08,16,55,33.00
2010,07,08,16,56,32.90
2010,07,08,16,57,32.90
2010,07,08,16,58,33.00
2010,07,08,16,59,33.10
2010,07,08,17,00,33.20
2010,07,08,17,01,33.20
2010,07,08,17,02,33.30
2010,07,08,17,03,33.40
2010,07,08,17,04,33.30
2010,07,08,17,05,33.20
2010,07,08,17,06,33.00
2010,07,08,17,07,33.00
2010,07,08,17,08,32.90
2010,07,08,17,09,33.00
2010,07,08,17,10,33.00
2010,07,08,17,11,32.90
2010,07,08,17,12,32.90
2010,07,08,17,13,32.90
2010,07,08,17,14,33.00
2010,07,08,17,15,33.00
2010,07,08,17,16,33.00
2010,07,08,17,17,33.10
2010,07,08,17,18,33.20
2010,07,08,17,19,33.30
2010,07,08,17,20,33.50
2010,07,08,17,21,33.50
2010,07,08,17,22,33.60
2010,07,08,17,23,33.60
2010,07,08,17,24,33.60